This demonstration page uses our WeatherBlox Daily Observations layout. Learn more.

Left ArrowRight Arrow

Hourly Observations for August 8, 2022

Temp ( °F °C ) Dew Point ( °F °C ) Humidity (%) Winds ( mph kmh ) Pressure ( in mb ) Visibility ( mi km ) Precip ( " mm )
12:53 am 00:53 Clear 60 15.6 37 2.8 42 42 SSW 7 11 29.93 1014 10 16 0.00 0.00
1:53 am 01:53 Clear 60 15.6 38 3.3 44 44 S 5 7 29.92 1013 10 16 0.00 0.00
2:53 am 02:53 Clear 56 13.3 38 3.3 51 51 WNW 3 6 29.92 1013 10 16 0.00 0.00
3:53 am 03:53 Clear 56 13.3 37 2.8 49 49 WSW 3 6 29.91 1013 10 16 0.00 0.00
4:53 am 04:53 Clear 53 11.7 36 2.2 52 52 WSW 8 13 29.92 1013 10 16 0.00 0.00
5:53 am 05:53 Clear 55 12.8 38 3.3 53 53 W 8 13 29.92 1013 10 16 0.00 0.00
6:53 am 06:53 Sunny 58 14.4 39 3.9 50 50 WSW 6 9 29.93 1014 10 16 0.00 0.00
7:53 am 07:53 Sunny 66 18.9 41 5 40 40 WSW 13 20 29.93 1013 10 16 0.00 0.00
8:53 am 08:53 Sunny 75 23.9 41 5 29 29 SW 21 33 29.92 1013 10 16 0.00 0.00
9:53 am 09:53 Sunny 81 27.2 40 4.4 23 23 SW 15 24 29.92 1013 10 16 0.00 0.00
10:53 am 10:53 Sunny 84 28.9 41 5 22 22 SW 15 24 29.90 1013 10 16 0.00 0.00
11:53 am 11:53 Sunny 89 31.7 40 4.4 18 18 WSW 10 17 29.88 1012 10 16 0.00 0.00
12:53 pm 12:53 Sunny 93 33.9 39 3.9 15 15 W 16 26 29.86 1011 10 16 0.00 0.00
1:53 pm 13:53 Sunny 94 34.4 39 3.9 15 15 Calm 29.86 1011 10 16 0.00 0.00
2:53 pm 14:53 Sunny 97 36.1 37 2.8 13 13 WSW 13 20 29.85 1011 10 16 0.00 0.00
3:53 pm 15:53 Sunny 96 35.6 33 0.6 11 11 W 9 15 29.84 1010 10 16 0.00 0.00
4:53 pm 16:53 Sunny 97 36.1 33 0.6 11 11 WNW 15 24 29.83 1010 10 16 0.00 0.00
5:53 pm 17:53 Sunny 97 36.1 33 0.6 11 11 W 7 11 29.83 1010 10 16 0.00 0.00
6:53 pm 18:53 Sunny 96 35.6 33 0.6 11 11 WNW 10 17 29.82 1010 10 16 0.00 0.00
7:53 pm 19:53 Sunny 94 34.4 33 0.6 12 12 WNW 7 11 29.81 1010 10 16 0.00 0.00
8:53 pm 20:53 Clear 83 28.3 34 1.1 17 17 SW 3 6 29.83 1010 10 16 0.00 0.00
9:53 pm 21:53 Clear 76 24.4 33 0.6 21 21 S 5 7 29.85 1011 10 16 0.00 0.00
10:53 pm 22:53 Clear 73 22.8 33 0.6 23 23 Calm 29.88 1012 10 16 0.00 0.00
11:53 pm 23:53 Clear 71 21.7 35 1.7 27 27 NNE 10 17 29.89 1012 10 16 0.00 0.00

Powered by AerisWeather